Regional Weather Roundup
Issued by NWS Portland, ME

Current Version | Previous Version | Text Only | Print | Product List | Glossary Off
Versions: 1 2 3 4 5 6 7 8 9 10 11 12 13 14 15 16 17 18 19 20 21 22 23 24 25 26 27 28 29 30 31 32 33 34 35 36 37 38 39 40 41 42 43 44 45 46 47 48 49 50

000
ASUS41 KGYX 300610
RWRGYX
WEATHER ROUNDUP FOR MAINE AND NEW HAMPSHIRE
NATIONAL WEATHER SERVICE GRAY ME
200 AM EDT SUN APR 30 2017

MEZ002-005-006-010-012-015-018-020-021-024-026-027-029-300700-
MAINE

CITY           SKY/WX    TMP DP  RH WIND       PRES   REMARKS
PORTLAND       CLEAR     50  27  40 N18G25    30.11R
6HR MIN TEMP:  50; 6HR MAX TEMP:  71;

SANFORD        CLEAR     53  33  46 N7        30.13R
WISCASSET      CLEAR     50  27  40 MISG      30.12R
6HR MIN TEMP:  50; 6HR MAX TEMP:  73;

ROCKLAND       CLEAR     47  27  45 NW12G22   30.08R
FRYEBURG       CLEAR     44  26  49 NW6       30.15R
6HR MIN TEMP:  42; 6HR MAX TEMP:  68;

LEWISTONAUBURN CLEAR     46  26  45 N16       30.13R
AUGUSTA        CLEAR     43  24  47 N13G21    30.13R
6HR MIN TEMP:  43; 6HR MAX TEMP:  67;

BANGOR         CLEAR     42  26  53 NW16      30.11R
6HR MIN TEMP:  42; 6HR MAX TEMP:  66;

GREENVILLE       N/A     34  22  61 NW12G21   30.07R
6HR MIN TEMP:  34; 6HR MAX TEMP:  52;

MILLINOCKET    PTCLDY    38  24  57 N9        30.12R
6HR MIN TEMP:  38; 6HR MAX TEMP:  61;

HOULTON        CLOUDY    38  23  55 N13G26    30.06R
6HR MIN TEMP:  37; 6HR MAX TEMP:  48;

PRESQUE ISLE   CLOUDY    37  21  52 NW15G24   30.09R
6HR MIN TEMP:  37; 6HR MAX TEMP:  44;

FRENCHVILLE    CLOUDY    34  19  54 NW17G24   30.04R
6HR MIN TEMP:  34; 6HR MAX TEMP:  41; 6HR PCP: TRACE;

CARIBOU        CLOUDY    36  22  56 N17G25    30.06R
6HR MIN TEMP:  36; 6HR MAX TEMP:  43;

$$

NHZ002-005-008-009-011-012-014-300700-
NEW HAMPSHIRE

CITY           SKY/WX    TMP DP  RH WIND       PRES   REMARKS
PORTSMOUTH     CLEAR     56  33  42 NW20      30.10R
ROCHESTER      CLEAR     53  30  41 NW16G22   30.12R
6HR MIN TEMP:  53; 6HR MAX TEMP:  70;

NASHUA         CLEAR     56  37  49 NW8         N/A
MANCHESTER     CLEAR     57  31  37 NW10      30.13R
6HR MIN TEMP:  57; 6HR MAX TEMP:  70;

CONCORD        CLEAR     52  32  46 N15G21    30.17R
6HR MIN TEMP:  51; 6HR MAX TEMP:  70;

LACONIA        CLEAR     47  28  47 NW7       30.18R
PLYMOUTH       FAIR      45  27  49 NW6       30.20R
BERLIN         CLOUDY    38  22  52 VRB3G17   30.18R
6HR MIN TEMP:  38; 6HR MAX TEMP:  61;

WHITEFIELD     CLOUDY    37  23  56 N5        30.22R
6HR MIN TEMP:  37; 6HR MAX TEMP:  61;

JAFFREY        CLEAR     54  38  54 VRB6      30.15R
6HR MIN TEMP:  54; 6HR MAX TEMP:  65;

KEENE          CLEAR     54  33  45 NW6       30.17R
LEBANON        CLEAR     48  28  46 N13       30.20R
6HR MIN TEMP:  47; 6HR MAX TEMP:  68;

MT WASHINGTON  FOG       18  18 100 NW64G72     N/A  VSB 1/4 WCI  -8
6HR MIN TEMP:  17; 6HR MAX TEMP:  37;

$$

VTZ005-007-008-300700-
VERMONT

CITY           SKY/WX    TMP DP  RH WIND       PRES   REMARKS
ST JOHNSBURY     N/A     40  23  50 MISG      30.23R
MONTPELIER     CLOUDY    38  24  57 NW8       30.28R
BURLINGTON     CLEAR     43  26  51 NW13      30.29R
$$

MAZ007-012-024-CTZ003-RIZ002-NYZ038-NYZ072-300700-
SOUTHERN NEW ENGLAND AND NY

CITY           SKY/WX    TMP DP  RH WIND       PRES   REMARKS
BOSTON         CLEAR     62  41  46 NW14G23   30.10R
WORCESTER      CLEAR     54  36  50 NW16      30.14R
NANTUCKET      CLOUDY    64  45  49 NW12G23   30.06R
PROVIDENCE     CLEAR     63  38  39 NW9       30.10R
HARTFORD       CLEAR     57  35  43 N12       30.16R
ALBANY         CLEAR     50  33  52 W13       30.21S
NEW YORK CITY  CLOUDY    68  47  46 NW10      30.11S
$$

ANZ081-ANZ082-ANZ150-NHZ014-MEZ023>029-300700-
COASTAL MARINE OBSERVATIONS

STATION/POSITION TIME  TEMP    WIND        PRES    WAVE
                       AIR SEA DIR/SP/G            HT/PER
                 (UTC) (F)     (DEG/KT/KT) (MB)    (FT/S)
MOUNT DESERT ROC 0600   46                 1017.0R
MATINICUS ROCK   0500   49     350/ 26/ 28 1016.2R
ISLE OF SHOALS   0500   61     310/ 22/ 23 1017.3R
JEFFREYS LEDGE   0506      45                N/A     3/ 8
CASHES LEDGE BUO 0450   51 44              1015.2    3/ 8
GEORGES BANK BUO 0450   48 41              1013.9    5/ 6
$$

.............KEY..............
   WCI - WIND CHILL
   TC  - TEMPERATURE IN CELSIUS
   VSB - VISIBILITY IN MILES
   HX  - HEAT INDEX
   FAIR- INDICATES FEW OR NO CLOUDS BELOW 12,000 FT, WITH NO
         SIGNIFICANT WEATHER AND/OR OBSTRUCTIONS TO VISIBILITY.






USA.gov is the U.S. government's official web portal to all federal, state and local government web resources and services.